sat.trackr.live / text

‹ back to catalog

STARLINK-32360

NORAD 61007 · 2024-158T

PAYLOAD ACTIVE UNKNOWN

§ Identity

Operator
Country
US
Launch date
2024-09-05
Launch site
AFETR
Launch vehicle
Mass (kg)
RCS (m²)

Purposes: comms

External: N2YO · Heavens-Above · Gunter

§ Orbital elements

Epoch: 2026-05-25T03:52:22.541664Z

Period
93.85 min
Inclination
53.1626°
Eccentricity
0.0001242
Mean motion
15.34395395 rev/d
Perigee alt
461.9 km
Apogee alt
463.6 km
Semi-major
6,840.9 km
B*
4.7629e-5
RAAN
54.7357°
Arg perigee
91.9140°
Mean anomaly
268.2005°
Rev number
9,750

§ Raw data

STARLINK-323601 61007U 24158T   26145.16137201  .00001233  00000+0  47629-4 0  99932 61007  53.1626  54.7357 0001242  91.9140 268.2005 15.34395395 97504

JSON: /api/v1/satellites/61007 · /tle

For live sub-satellite position, see the globe view (requires WebGL).

§ Visibility from observer

Set your observer location to see the next 7 days of passes ≥ 10°. The values pass through the URL so the page stays shareable.

No JS? Fill the form by hand. The geolocation button needs JavaScript.